Regional Weather Roundup
Issued by NWS

Home | Current Version | Previous Version | Graphics & Text | Print | Product List | Glossary On
Versions: 1 2 3 4 5 6 7 8 9 10 11 12 13 14 15 16 17 18 19 20 21 22 23 24 25 26 27 28 29 30 31 32 33 34 35 36 37 38 39 40 41 42 43 44 45 46 47 48 49 50
000
ASUS43 KMPX 252010
RWRMN
WEATHER ROUNDUP FOR MINNESOTA
NATIONAL WEATHER SERVICE TWIN CITIES/CHANHASSEN MN
300 PM CDT TUE JUL 25 2017


NOTE: "FAIR" INDICATES FEW OR NO CLOUDS BELOW 12,000 FEET WITH NO
SIGNIFICANT WEATHER AND/OR OBSTRUCTIONS TO VISIBILITY. N/A MEANS
CURRENT SKY AND/OR WEATHER CONDITIONS ARE NOT AVAILABLE.

MNZ060>063-068>070-252100-
   Twin Cities Metro

CITY           SKY/WX    TMP DP  RH WIND       PRES   REMARKS
TWIN CITIES    PTSUNNY   81  67  62 S13G23    29.96F
ST PAUL        CLOUDY    82  70  66 S14       29.96F
CRYSTAL        PTSUNNY   83  67  58 S12G21    29.95S
BLAINE         PTSUNNY   84  68  58 S9G20     29.96F
LAKEVILLE      PTSUNNY   79  70  73 S9G17     29.98R
EDEN PRAIRIE   CLOUDY    81  70  69 S14       29.95F
SOUTH ST PAUL  RAIN      78  68  70 S13G20    29.97S
LAKE ELMO      FAIR      81  68  65 S17       29.99S
$$
MNZ001>005-007-008-013>017-022>024-027-028-252100-
   Northwest Minnesota

CITY           SKY/WX    TMP DP  RH WIND       PRES   REMARKS
BEMIDJI        CLOUDY    73  66  78 SE9       29.91R
HALLOCK        SUNNY     82  54  36 W14       29.84F
ROSEAU         SUNNY     82  66  57 SW13      29.84S
WARROAD        MOSUNNY   81  72  74 SW10G18   29.84S
THIEF RVR FALL MOSUNNY   79  70  73 S8        29.89
CROOKSTON      CLOUDY    81  70  69 SW6       29.88R
FOSSTON        CLOUDY    77  66  69 SW6       29.91R
DETROIT LAKES  PTSUNNY   73  68  83 S8        29.95R
MOORHEAD       CLOUDY    75  68  78 S5        29.91S
PARK RAPIDS    CLOUDY    73  67  81 S8        29.95R
MAHNOMEN       CLOUDY    76  69  79 S7        29.91R
$$
MNZ006-009>011-018-025>026-252100-
   North Central Minnesota

CITY           SKY/WX    TMP DP  RH WIND       PRES   REMARKS
FLAG ISLAND    PTSUNNY   77  66  69 SW9G18    29.82R
INTL FALLS     CLOUDY    74  65  73 S8        29.89S
WASKISH        CLOUDY    75  66  73 S6        29.89S
BIG FORK       CLOUDY    72  66  83 S8        29.93F
LONGVILLE      CLOUDY    72  66  83 S7        29.94R
GRAND RAPIDS   CLOUDY    71  66  84 SE10      29.94F
CRANE LAKE     CLOUDY    72  64  78 S5        29.94S
ORR            CLOUDY    72  63  73 S5        29.93R
COOK             N/A     72  64  78 S6        29.95F
WALKER         CLOUDY    71  66  86 SE6       29.92R
$$
MNZ012-019>021-037-252100-
   Northeast Minnesota

CITY           SKY/WX    TMP DP  RH WIND       PRES   REMARKS
DULUTH         CLOUDY    70  64  81 SE14      29.98S
ELY            CLOUDY    73  63  68 S9G16     29.97S
HIBBING        CLOUDY    71  66  84 SW8       29.96F
EVELETH        CLOUDY    73  63  70 S10       29.97
DULUTH HARBOR  CLOUDY    66  63  88 NE10      29.97F
TWO HARBORS    PTSUNNY   73  66  78 SE3       29.98S
SILVER BAY     CLOUDY    75  64  69 S7        29.98S
GRAND MARAIS     N/A     64  58  80 NE5       30.01F
G MARAIS ARPRT MOSUNNY   68  57  68 S9        30.04F
$$
MNZ029>031-032-039>041-046>048-054>057-064-252100-
   West Central Minnesota

CITY           SKY/WX    TMP DP  RH WIND       PRES   REMARKS
FERGUS FALLS   CLOUDY    75  68  78 SE7       29.90S
WHEATON        PTSUNNY   79  70  73 SE7       29.93S
MORRIS         MOSUNNY   84  70  61 CALM      29.93R
ALEXANDRIA     PTSUNNY   79  70  74 CALM      29.97R
ELBOW LAKE     PTSUNNY   78  70  74 SE9       29.91F HAZE
WADENA         CLOUDY    73  66  78 S8        29.94S
GLENWOOD       MOSUNNY   79  72  78 SE6       29.95R
APPLETON       SUNNY     86  70  58 W3        29.91R HX  90
BENSON         CLOUDY    88  72  58 S10       29.90S HX  94
ORTONVILLE     SUNNY     82  70  65 MISG      29.92R
MADISON        SUNNY     88  72  58 CALM      29.90R HX  94
WILLMAR        PTSUNNY   86  73  66 SE8       29.92S HX  93
$$
MNZ033>034-036-042>043-049>051-058-059-252100-
   Central Minnesota

CITY           SKY/WX    TMP DP  RH WIND       PRES   REMARKS
ST CLOUD       CLOUDY    78  70  76 S9        29.94F
SAUK CENTRE    MOCLDY    79  71  75 S10       29.93F
PAYNESVILLE    CLOUDY    79  70  75 CALM      29.94S
AITKIN         CLOUDY    72  66  83 SE6       29.94F
PINE RIVER     CLOUDY    72  66  83 S8G17     29.99R
BRAINERD       CLOUDY    73  67  81 S7        29.94F
STAPLES        CLOUDY    75  66  73 S9        29.96R
LONG PRAIRIE   CLOUDY    75  70  83 SE8       29.95R
LITTLE FALLS   CLOUDY    75  64  69 S8        29.94S
LITCHFIELD     CLOUDY    84  73  70 S3        29.93S HX  91
BUFFALO        CLOUDY    80  68  67 S7        29.96S
MAPLE LAKE     CLOUDY    79  71  76 SE3       29.96S
HUTCHINSON     MOSUNNY   85  75  70 S10G18    29.94F HX  94
$$
MNZ037-044-045-052-053-252100-
   East Central Minnesota

CITY           SKY/WX    TMP DP  RH WIND       PRES   REMARKS
PRINCETON      MOSUNNY   81  70  69 SE9       29.95F
MORA           CLOUDY    73  64  73 S5        29.97F
CAMBRIDGE      CLOUDY    79  64  61 S9        29.95S
RUSH CITY      CLOUDY    76  67  75 S6        29.97R
MOOSE LAKE     CLOUDY    72  64  78 SE3       29.95F
HINCKLEY       CLOUDY    73  68  83 SE6       29.96F
CLOQUET        CLOUDY    72  63  73 SE7       29.98F
MCGREGOR       CLOUDY    72  64  78 S9        29.98R
$$
MNZ071>073-080-081-089-090-097-098-252100-
   Southwest Minnesota

CITY           SKY/WX    TMP DP  RH WIND       PRES   REMARKS
MONTEVIDEO     MOSUNNY   91  73  55 SW7       29.90R HX 100
GRANITE FALLS  MOSUNNY   90  76  65 S7        29.90F HX 101
CANBY          MOSUNNY   92  70  48 CALM      29.90R HX  97
MARSHALL       PTSUNNY   89  75  63 S12       29.89F HX  99
REDWOOD FALLS  PTSUNNY   88  74  63 S10       29.90F HX  96
OLIVIA         MOSUNNY   88  73  62 S9        29.91S HX  96
PIPESTONE      SUNNY     91  73  55 SW14G24   29.92F HX 100
WINDOM         SUNNY     90  72  55 S16G23    29.94S HX  96
WORTHINGTON    SUNNY     89  73  59 S20       29.95R HX  97
JACKSON        SUNNY     88  72  58 S14G21    29.96S HX  94
TRACY          SUNNY     90  76  63 SW12      29.91F HX 101
SLAYTON        MOSUNNY   88  65  47 S13       29.94S HX  90
$$
MNZ065>067-074>077-082>085-091>093-252100-
   South Central Minnesota

CITY           SKY/WX    TMP DP  RH WIND       PRES   REMARKS
MANKATO        SUNNY     84  73  69 S16G24    29.95F HX  90
NEW ULM        SUNNY     86  72  62 S15       29.93S HX  92
ST JAMES       SUNNY     86  73  66 S15G25    29.95S HX  93
FAIRMONT       SUNNY     86  73  65 S17G26    29.96S HX  93
GLENCOE        MOSUNNY   85  76  74 S10G18    29.94F HX  94
FARIBAULT      MOSUNNY   81  72  74 S18G28    29.97F
OWATONNA       MOSUNNY   81  70  69 S22G31    29.98S
WASECA         MOSUNNY   82  70  65 S22G31    29.98F
ALBERT LEA     MOSUNNY   82  70  65 S15G26    30.00S
$$
MNZ078>079-086>088-094>096-252100-
   Southeast Minnesota

CITY           SKY/WX    TMP DP  RH WIND       PRES   REMARKS
ROCHESTER      SUNNY     78  66  66 S23G36    30.01F
RED WING       RAIN      79  66  65 SE6       29.98S
STANTON        PTSUNNY   80  69  67 S9        29.97S
DODGE CENTER   MOSUNNY   77  66  69 S20G28    30.01S
WINONA         MOSUNNY   79  68  69 SE6G17    30.02F
AUSTIN         SUNNY     79  66  65 S20G28    30.02S
PRESTON        SUNNY     78  64  62 S23G31    30.04F
$$
ABBREVIATIONS USED IN REMARKS
   TC - TEMPERATURES IN CELSIUS
  WCI - WIND CHILL INDEX
   HX - HEAT INDEX
  VSB - VISIBILITY
$$




USA.gov is the U.S. government's official web portal to all federal, state and local government web resources and services.